QPF
0.01 0.01 0.01 0.00 0.01 0.01 0.01 0.01 0.01 0.01 0.01 0.01 0.01 0.01 0.01 0.01 0.02 0.02 0.01 0.01 0.01 0.00 0.00 0.01 0.01 0.01 0.01 0.01 0.02 0.01 0.01 0.01 0.01 0.01 0.01 0.01 0.01 0.01 0.02 0.02 0.01 0.01 0.01 0.01
0.00 0.00 0.01 0.00 0.00 0.01 0.01 0.01 0.01 0.01 0.02 0.01 0.02 0.01 0.01 0.01 0.01 0.02 0.01 0.01 0.01 0.01 0.01 0.00 0.01 0.01 0.02 0.02 0.02 0.01 0.01 0.01 0.01 0.01 0.01 0.01 0.01 0.01 0.02 0.03 0.02 0.01 0.01 0.01
0.01 0.00 0.00 0.00 0.01 0.01 0.01 0.01 0.02 0.02 0.02 0.02 0.01 0.01 0.01 0.01 0.01 0.02 0.02 0.02 0.02 0.01 0.01 0.01 0.02 0.02 0.01 0.01 0.02 0.01 0.01 0.01 0.01 0.01 0.01 0.01 0.01 0.02 0.02 0.02 0.02 0.01 0.01 0.01
0.02 0.01 0.00 0.00 0.00 0.01 0.01 0.01 0.01 0.01 0.02 0.02 0.02 0.01 0.01 0.01 0.01 0.02 0.02 0.01 0.01 0.01 0.01 0.02 0.02 0.02 0.01 0.02 0.02 0.02 0.01 0.01 0.01 0.01 0.01 0.01 0.01 0.02 0.02 0.02 0.01 0.01 0.01 0.01
0.02 0.01 0.00 0.00 0.01 0.01 0.01 0.01 0.01 0.01 0.01 0.01 0.01 0.01 0.00 0.00 0.00 0.01 0.01 0.01 0.02 0.01 0.01 0.02 0.02 0.03 0.02 0.02 0.02 0.02 0.02 0.02 0.02 0.02 0.02 0.01 0.01 0.01 0.02 0.02 0.01 0.01 0.01 0.01
0.02 0.01 0.01 0.01 0.01 0.00 0.00 0.01 0.00 0.00 0.00 0.01 0.00 0.00 0.00 0.00 0.00 0.01 0.01 0.01 0.01 0.01 0.01 0.02 0.02 0.02 0.03 0.03 0.02 0.02 0.02 0.02 0.02 0.02 0.02 0.02 0.01 0.02 0.02 0.02 0.01 0.01 0.01 0.01
0.02 0.01 0.01 0.01 0.00 0.00 0.00 0.01 0.00 0.00 0.00 0.00 0.00 0.00 0.00 0.00 0.00 0.00 0.00 0.01 0.01 0.01 0.01 0.02 0.02 0.02 0.02 0.02 0.02 0.02 0.02 0.02 0.02 0.01 0.01 0.01 0.01 0.02 0.02 0.02 0.02 0.02 0.01 0.01
0.02 0.02 0.01 0.00 0.00 0.00 0.00 0.00 0.00 0.00 0.00 0.00 0.00 0.00 0.00 0.00 0.00 0.00 0.00 0.00 0.01 0.01 0.01 0.01 0.02 0.02 0.02 0.02 0.02 0.03 0.02 0.02 0.02 0.02 0.01 0.01 0.01 0.01 0.01 0.01 0.01 0.01 0.01 0.01
0.02 0.02 0.01 0.01 0.00 0.00 0.00 0.01 0.01 0.01 0.00 0.00 0.00 0.00 0.00 0.00 0.01 0.00 0.00 0.00 0.01 0.01 0.01 0.01 0.01 0.02 0.02 0.02 0.03 0.03 0.03 0.02 0.02 0.02 0.01 0.02 0.02 0.01 0.01 0.01 0.01 0.01 0.01 0.00
0.01 0.01 0.01 0.01 0.01 0.00 0.00 0.01 0.01 0.01 0.01 0.00 0.00 0.00 0.01 0.01 0.01 0.01 0.01 0.01 0.01 0.01 0.00 0.00 0.00 0.00 0.01 0.02 0.02 0.02 0.02 0.02 0.02 0.01 0.01 0.02 0.02 0.02 0.02 0.02 0.01 0.01 0.01 0.01
0.01 0.01 0.01 0.01 0.01 0.00 0.00 0.01 0.02 0.01 0.01 0.01 0.00 0.01 0.01 0.01 0.01 0.01 0.01 0.02 0.01 0.01 0.01 0.01 0.01 0.01 0.01 0.02 0.03 0.03 0.02 0.02 0.01 0.01 0.02 0.01 0.01 0.01 0.02 0.02 0.02 0.01 0.01 0.01
0.01 0.01 0.01 0.00 0.00 0.00 0.00 0.00 0.01 0.01 0.02 0.01 0.00 0.01 0.01 0.02 0.02 0.02 0.02 0.02 0.02 0.02 0.02 0.02 0.02 0.01 0.01 0.02 0.03 0.04 0.03 0.02 0.02 0.01 0.01 0.01 0.01 0.01 0.02 0.01 0.01 0.01 0.01 0.01
0.01 0.01 0.01 0.01 0.00 0.00 0.00 0.00 0.01 0.01 0.01 0.01 0.01 0.00 0.00 0.01 0.01 0.02 0.01 0.01 0.01 0.01 0.01 0.01 0.01 0.01 0.01 0.01 0.02 0.02 0.03 0.02 0.02 0.01 0.01 0.01 0.01 0.01 0.01 0.01 0.00 0.00 0.01 0.01
0.00 0.00 0.01 0.01 0.01 0.00 0.00 0.00 0.00 0.01 0.01 0.01 0.01 0.00 0.00 0.00 0.01 0.01 0.01 0.01 0.01 0.02 0.01 0.01 0.01 0.01 0.01 0.01 0.01 0.01 0.02 0.02 0.02 0.01 0.01 0.02 0.02 0.02 0.01 0.01 0.01 0.00 0.00 0.01
0.00 0.00 0.00 0.01 0.01 0.00 0.00 0.00 0.00 0.00 0.00 0.00 0.01 0.01 0.00 0.00 0.01 0.01 0.00 0.00 0.01 0.01 0.02 0.02 0.02 0.02 0.01 0.01 0.01 0.01 0.01 0.02 0.02 0.02 0.02 0.01 0.01 0.01 0.01 0.00 0.00 0.00 0.00 0.01
0.00 0.00 0.00 0.00 0.01 0.01 0.00 0.00 0.00 0.00 0.00 0.00 0.00 0.00 0.00 0.00 0.01 0.01 0.01 0.00 0.00 0.01 0.01 0.02 0.02 0.02 0.01 0.01 0.02 0.02 0.02 0.02 0.02 0.03 0.03 0.02 0.01 0.01 0.01 0.01 0.00 0.00 0.00 0.01
0.00 0.00 0.00 0.00 0.00 0.00 0.00 0.01 0.01 0.01 0.00 0.00 0.01 0.01 0.01 0.01 0.01 0.01 0.01 0.01 0.01 0.01 0.01 0.01 0.01 0.01 0.01 0.01 0.01 0.01 0.02 0.02 0.02 0.02 0.02 0.02 0.01 0.01 0.01 0.01 0.00 0.00 0.00 0.01
0.01 0.00 0.00 0.00 0.00 0.00 0.00 0.01 0.01 0.01 0.01 0.01 0.01 0.01 0.01 0.01 0.01 0.01 0.00 0.00 0.01 0.01 0.00 0.01 0.00 0.00 0.00 0.01 0.01 0.01 0.01 0.01 0.01 0.01 0.02 0.02 0.01 0.01 0.01 0.00 0.00 0.00 0.00 0.01
0.00 0.00 0.00 0.00 0.00 0.00 0.01 0.01 0.01 0.01 0.01 0.01 0.02 0.01 0.01 0.00 0.00 0.00 0.00 0.00 0.00 0.00 0.00 0.00 0.01 0.01 0.00 0.00 0.00 0.00 0.01 0.01 0.01 0.01 0.01 0.01 0.02 0.01 0.01 0.00 0.00 0.00 0.00 0.00
0.00 0.00 0.00 0.00 0.00 0.00 0.00 0.00 0.01 0.01 0.01 0.00 0.00 0.00 0.00 0.00 0.00 0.00 0.00 0.00 0.00 0.00 0.00 0.01 0.01 0.01 0.01 0.01 0.02 0.01 0.01 0.01 0.01 0.01 0.01 0.01 0.01 0.01 0.01 0.01 0.00 0.00 0.00 0.00
0.00 0.01 0.00 0.00 0.00 0.00 0.00 0.00 0.00 0.00 0.00 0.00 0.00 0.00 0.00 0.00 0.00 0.00 0.00 0.00 0.01 0.01 0.01 0.01 0.01 0.01 0.01 0.02 0.02 0.01 0.01 0.02 0.01 0.01 0.01 0.01 0.01 0.01 0.01 0.01 0.01 0.01 0.01 0.01
0.00 0.00 0.00 0.00 0.00 0.00 0.00 0.01 0.00 0.00 0.00 0.00 0.00 0.00 0.00 0.00 0.00 0.00 0.00 0.00 0.00 0.01 0.01 0.01 0.02 0.02 0.02 0.02 0.01 0.01 0.01 0.01 0.01 0.02 0.02 0.02 0.02 0.02 0.02 0.02 0.01 0.01 0.01 0.01
0.00 0.00 0.00 0.00 0.00 0.00 0.00 0.00 0.00 0.00 0.00 0.00 0.00 0.00 0.00 0.00 0.00 0.00 0.00 0.00 0.00 0.00 0.01 0.01 0.02 0.02 0.02 0.02 0.02 0.02 0.02 0.01 0.02 0.02 0.02 0.02 0.02 0.01 0.01 0.01 0.02 0.01 0.01 0.01
0.00 0.00 0.00 0.00 0.00 0.00 0.00 0.00 0.00 0.00 0.00 0.00 0.00 0.00 0.00 0.00 0.00 0.00 0.00 0.00 0.00 0.01 0.01 0.01 0.02 0.02 0.02 0.01 0.01 0.01 0.01 0.01 0.02 0.02 0.02 0.02 0.02 0.01 0.01 0.01 0.01 0.02 0.02 0.01
0.00 0.00 0.00 0.00 0.00 0.00 0.00 0.00 0.00 0.00 0.00 0.00 0.00 0.00 0.00 0.00 0.00 0.00 0.00 0.00 0.00 0.00 0.00 0.00 0.01 0.01 0.01 0.01 0.01 0.01 0.01 0.01 0.02 0.02 0.02 0.02 0.02 0.02 0.02 0.01 0.02 0.02 0.02 0.02
0.00 0.00 0.00 0.00 0.00 0.00 0.00 0.00 0.00 0.00 0.00 0.00 0.00 0.00 0.00 0.00 0.00 0.00 0.00 0.00 0.00 0.00 0.00 0.00 0.00 0.01 0.01 0.01 0.01 0.01 0.01 0.01 0.02 0.02 0.02 0.02 0.03 0.02 0.02 0.02 0.02 0.02 0.02 0.02
0.00 0.00 0.00 0.00 0.00 0.00 0.00 0.00 0.00 0.00 0.00 0.00 0.00 0.01 0.01 0.01 0.01 0.01 0.01 0.01 0.00 0.00 0.00 0.00 0.00 0.00 0.01 0.01 0.01 0.01 0.01 0.01 0.01 0.01 0.02 0.02 0.02 0.02 0.02 0.02 0.02 0.02 0.02 0.02
MSLP
1015.77 1015.92 1016.16 1016.46 1016.74 1016.95 1017.01 1016.85 1016.46 1015.84 1015.03 1014.10 1013.14 1012.24 1011.50 1010.96 1010.66 1010.59 1010.73 1011.01 1011.38 1011.79 1012.20 1012.58 1012.93 1013.25 1013.57 1013.89 1014.22 1014.55 1014.88 1015.19 1015.45 1015.66 1015.80 1015.89 1015.94 1015.96 1015.99 1016.05 1016.14 1016.29 1016.49 1016.73
1015.34 1015.32 1015.36 1015.43 1015.50 1015.51 1015.41 1015.17 1014.76 1014.21 1013.52 1012.77 1012.00 1011.30 1010.71 1010.27 1010.00 1009.90 1009.95 1010.12 1010.37 1010.68 1011.02 1011.37 1011.74 1012.12 1012.53 1012.95 1013.38 1013.80 1014.20 1014.55 1014.85 1015.07 1015.22 1015.32 1015.38 1015.43 1015.49 1015.59 1015.73 1015.92 1016.17 1016.44
1014.82 1014.62 1014.45 1014.30 1014.15 1013.96 1013.71 1013.37 1012.95 1012.45 1011.88 1011.28 1010.68 1010.14 1009.68 1009.33 1009.09 1008.97 1008.95 1009.03 1009.18 1009.40 1009.68 1010.01 1010.41 1010.85 1011.34 1011.87 1012.40 1012.92 1013.40 1013.82 1014.16 1014.41 1014.59 1014.71 1014.80 1014.88 1014.98 1015.12 1015.30 1015.53 1015.80 1016.09
1014.30 1013.91 1013.54 1013.17 1012.81 1012.43 1012.03 1011.59 1011.13 1010.65 1010.15 1009.66 1009.20 1008.79 1008.44 1008.15 1007.94 1007.80 1007.74 1007.74 1007.82 1007.98 1008.22 1008.55 1008.97 1009.47 1010.04 1010.65 1011.28 1011.89 1012.45 1012.94 1013.33 1013.63 1013.85 1014.01 1014.14 1014.26 1014.40 1014.57 1014.79 1015.04 1015.33 1015.63
1013.91 1013.34 1012.77 1012.20 1011.63 1011.07 1010.51 1009.97 1009.44 1008.94 1008.47 1008.04 1007.66 1007.33 1007.05 1006.81 1006.62 1006.48 1006.38 1006.35 1006.38 1006.51 1006.73 1007.05 1007.49 1008.04 1008.66 1009.34 1010.04 1010.72 1011.34 1011.89 1012.34 1012.69 1012.96 1013.17 1013.35 1013.51 1013.69 1013.90 1014.15 1014.42 1014.71 1015.01
1013.75 1013.02 1012.27 1011.52 1010.76 1010.02 1009.31 1008.64 1008.02 1007.46 1006.97 1006.55 1006.19 1005.89 1005.64 1005.43 1005.26 1005.11 1005.01 1004.95 1004.97 1005.08 1005.29 1005.62 1006.07 1006.63 1007.28 1007.99 1008.73 1009.44 1010.10 1010.69 1011.18 1011.59 1011.91 1012.17 1012.39 1012.61 1012.83 1013.08 1013.34 1013.63 1013.92 1014.21
1013.87 1013.01 1012.11 1011.19 1010.28 1009.38 1008.52 1007.72 1006.99 1006.35 1005.79 1005.33 1004.95 1004.64 1004.38 1004.17 1004.00 1003.86 1003.75 1003.70 1003.71 1003.81 1004.02 1004.34 1004.78 1005.34 1005.98 1006.68 1007.41 1008.12 1008.79 1009.39 1009.91 1010.35 1010.72 1011.02 1011.30 1011.56 1011.82 1012.09 1012.38 1012.67 1012.96 1013.24
1014.24 1013.27 1012.26 1011.23 1010.19 1009.17 1008.19 1007.27 1006.43 1005.69 1005.05 1004.51 1004.07 1003.71 1003.43 1003.20 1003.01 1002.86 1002.76 1002.71 1002.72 1002.82 1003.02 1003.33 1003.74 1004.26 1004.86 1005.51 1006.19 1006.87 1007.51 1008.09 1008.61 1009.07 1009.46 1009.81 1010.12 1010.42 1010.71 1011.00 1011.29 1011.58 1011.86 1012.14
1014.73 1013.70 1012.63 1011.53 1010.42 1009.33 1008.27 1007.26 1006.34 1005.50 1004.77 1004.15 1003.64 1003.22 1002.88 1002.61 1002.40 1002.24 1002.13 1002.08 1002.10 1002.19 1002.38 1002.65 1003.02 1003.47 1004.00 1004.57 1005.17 1005.77 1006.35 1006.90 1007.40 1007.84 1008.25 1008.61 1008.95 1009.26 1009.57 1009.86 1010.15 1010.43 1010.70 1010.96
1015.15 1014.11 1013.03 1011.92 1010.81 1009.70 1008.62 1007.58 1006.61 1005.72 1004.93 1004.24 1003.65 1003.17 1002.77 1002.46 1002.21 1002.04 1001.92 1001.86 1001.88 1001.96 1002.11 1002.34 1002.65 1003.02 1003.45 1003.93 1004.43 1004.93 1005.43 1005.91 1006.36 1006.78 1007.17 1007.53 1007.87 1008.18 1008.48 1008.76 1009.03 1009.29 1009.53 1009.78
1015.29 1014.28 1013.25 1012.20 1011.15 1010.10 1009.07 1008.07 1007.11 1006.22 1005.41 1004.67 1004.04 1003.50 1003.06 1002.70 1002.42 1002.22 1002.09 1002.02 1002.02 1002.08 1002.20 1002.38 1002.62 1002.91 1003.24 1003.61 1004.00 1004.40 1004.81 1005.21 1005.59 1005.97 1006.32 1006.66 1006.97 1007.26 1007.53 1007.78 1008.01 1008.22 1008.43 1008.64
1014.98 1014.05 1013.12 1012.19 1011.27 1010.35 1009.43 1008.54 1007.66 1006.83 1006.04 1005.32 1004.67 1004.11 1003.63 1003.24 1002.94 1002.71 1002.56 1002.48 1002.46 1002.50 1002.58 1002.71 1002.88 1003.09 1003.33 1003.60 1003.88 1004.18 1004.50 1004.82 1005.13 1005.44 1005.75 1006.03 1006.30 1006.54 1006.76 1006.96 1007.13 1007.29 1007.45 1007.61
1014.19 1013.37 1012.58 1011.82 1011.07 1010.33 1009.59 1008.85 1008.12 1007.39 1006.68 1006.01 1005.38 1004.82 1004.34 1003.93 1003.61 1003.37 1003.20 1003.10 1003.06 1003.08 1003.13 1003.22 1003.34 1003.48 1003.64 1003.83 1004.03 1004.24 1004.47 1004.71 1004.95 1005.19 1005.43 1005.65 1005.85 1006.03 1006.18 1006.30 1006.41 1006.50 1006.59 1006.70
1013.01 1012.32 1011.70 1011.13 1010.58 1010.06 1009.52 1008.97 1008.41 1007.82 1007.22 1006.63 1006.06 1005.54 1005.06 1004.65 1004.32 1004.07 1003.89 1003.78 1003.72 1003.71 1003.75 1003.80 1003.88 1003.98 1004.09 1004.21 1004.34 1004.49 1004.65 1004.81 1004.98 1005.15 1005.31 1005.46 1005.58 1005.68 1005.74 1005.79 1005.81 1005.83 1005.85 1005.89
1011.65 1011.10 1010.65 1010.27 1009.93 1009.61 1009.29 1008.93 1008.54 1008.11 1007.64 1007.15 1006.65 1006.17 1005.72 1005.33 1004.99 1004.73 1004.54 1004.41 1004.35 1004.33 1004.34 1004.38 1004.44 1004.50 1004.58 1004.66 1004.75 1004.84 1004.94 1005.05 1005.15 1005.24 1005.32 1005.38 1005.42 1005.43 1005.40 1005.36 1005.29 1005.23 1005.18 1005.15
1010.39 1009.97 1009.67 1009.46 1009.30 1009.16 1009.02 1008.84 1008.60 1008.31 1007.96 1007.56 1007.14 1006.71 1006.29 1005.92 1005.59 1005.32 1005.12 1004.98 1004.90 1004.87 1004.87 1004.90 1004.94 1004.99 1005.05 1005.11 1005.16 1005.22 1005.27 1005.32 1005.35 1005.37 1005.37 1005.34 1005.29 1005.20 1005.08 1004.94 1004.79 1004.65 1004.53 1004.44
1009.47 1009.17 1008.99 1008.90 1008.87 1008.87 1008.85 1008.80 1008.68 1008.50 1008.24 1007.93 1007.57 1007.18 1006.80 1006.44 1006.12 1005.85 1005.64 1005.49 1005.39 1005.34 1005.33 1005.34 1005.37 1005.41 1005.45 1005.49 1005.52 1005.55 1005.56 1005.55 1005.52 1005.46 1005.38 1005.26 1005.10 1004.92 1004.71 1004.48 1004.25 1004.03 1003.84 1003.69
1009.07 1008.85 1008.75 1008.73 1008.77 1008.84 1008.89 1008.90 1008.86 1008.74 1008.55 1008.29 1007.98 1007.63 1007.28 1006.93 1006.62 1006.35 1006.12 1005.95 1005.84 1005.76 1005.73 1005.72 1005.74 1005.76 1005.78 1005.79 1005.80 1005.78 1005.75 1005.68 1005.58 1005.45 1005.28 1005.07 1004.82 1004.54 1004.24 1003.93 1003.62 1003.33 1003.07 1002.86
1009.22 1009.04 1008.96 1008.96 1009.02 1009.09 1009.15 1009.18 1009.15 1009.06 1008.90 1008.67 1008.39 1008.08 1007.75 1007.42 1007.11 1006.83 1006.59 1006.40 1006.26 1006.16 1006.09 1006.05 1006.03 1006.02 1006.01 1005.99 1005.96 1005.90 1005.81 1005.68 1005.52 1005.30 1005.04 1004.74 1004.40 1004.03 1003.64 1003.25 1002.87 1002.51 1002.20 1001.94
1009.78 1009.60 1009.50 1009.47 1009.48 1009.51 1009.54 1009.54 1009.50 1009.40 1009.25 1009.05 1008.80 1008.51 1008.21 1007.89 1007.59 1007.31 1007.06 1006.85 1006.67 1006.53 1006.42 1006.33 1006.27 1006.21 1006.16 1006.09 1006.00 1005.89 1005.74 1005.55 1005.31 1005.01 1004.67 1004.28 1003.85 1003.40 1002.93 1002.46 1002.01 1001.60 1001.23 1000.91
1010.51 1010.30 1010.15 1010.05 1009.99 1009.95 1009.91 1009.86 1009.79 1009.68 1009.54 1009.35 1009.12 1008.87 1008.60 1008.31 1008.03 1007.75 1007.49 1007.25 1007.04 1006.85 1006.69 1006.55 1006.43 1006.31 1006.20 1006.07 1005.93 1005.75 1005.54 1005.28 1004.97 1004.61 1004.19 1003.73 1003.22 1002.69 1002.15 1001.62 1001.11 1000.63 1000.21 999.84
1011.16 1010.90 1010.68 1010.49 1010.35 1010.23 1010.12 1010.02 1009.91 1009.79 1009.65 1009.49 1009.31 1009.10 1008.87 1008.62 1008.36 1008.09 1007.83 1007.57 1007.33 1007.10 1006.88 1006.68 1006.49 1006.31 1006.13 1005.95 1005.74 1005.51 1005.24 1004.92 1004.55 1004.13 1003.65 1003.12 1002.56 1001.97 1001.38 1000.79 1000.22 999.70 999.22 998.80
1011.54 1011.21 1010.90 1010.64 1010.41 1010.21 1010.04 1009.90 1009.77 1009.66 1009.54 1009.42 1009.28 1009.13 1008.95 1008.75 1008.53 1008.29 1008.03 1007.76 1007.49 1007.22 1006.96 1006.70 1006.45 1006.21 1005.97 1005.73 1005.47 1005.19 1004.87 1004.51 1004.10 1003.64 1003.12 1002.56 1001.96 1001.34 1000.70 1000.07 999.47 998.90 998.38 997.91
1011.54 1011.14 1010.77 1010.42 1010.12 1009.87 1009.66 1009.49 1009.37 1009.27 1009.19 1009.12 1009.04 1008.95 1008.84 1008.69 1008.52 1008.30 1008.06 1007.80 1007.51 1007.21 1006.91 1006.61 1006.32 1006.03 1005.75 1005.46 1005.16 1004.85 1004.51 1004.12 1003.70 1003.22 1002.70 1002.12 1001.51 1000.87 1000.22 999.58 998.95 998.35 997.79 997.28
1011.20 1010.74 1010.30 1009.90 1009.56 1009.26 1009.03 1008.86 1008.75 1008.68 1008.64 1008.63 1008.61 1008.59 1008.54 1008.45 1008.33 1008.15 1007.94 1007.68 1007.40 1007.09 1006.77 1006.45 1006.13 1005.82 1005.51 1005.20 1004.89 1004.57 1004.23 1003.85 1003.43 1002.97 1002.46 1001.90 1001.30 1000.68 1000.04 999.39 998.75 998.14 997.56 997.03
1010.63 1010.13 1009.65 1009.22 1008.84 1008.53 1008.29 1008.13 1008.04 1008.00 1008.01 1008.04 1008.08 1008.12 1008.13 1008.09 1008.02 1007.88 1007.70 1007.47 1007.21 1006.91 1006.60 1006.28 1005.96 1005.65 1005.34 1005.05 1004.75 1004.44 1004.12 1003.77 1003.38 1002.95 1002.48 1001.96 1001.41 1000.82 1000.20 999.58 998.96 998.35 997.77 997.22
1010.01 1009.48 1008.99 1008.54 1008.15 1007.83 1007.60 1007.45 1007.37 1007.36 1007.40 1007.47 1007.55 1007.63 1007.68 1007.70 1007.66 1007.57 1007.43 1007.24 1007.01 1006.75 1006.47 1006.18 1005.89 1005.61 1005.34 1005.07 1004.81 1004.54 1004.26 1003.95 1003.62 1003.24 1002.82 1002.36 1001.85 1001.31 1000.75 1000.16 999.57 998.98 998.41 997.85
Thickness
5668 5672 5673 5673 5673 5669 5663 5659 5653 5660 5664 5677 5682 5685 5689 5691 5691 5692 5692 5692 5692 5690 5689 5687 5686 5685 5685 5683 5681 5679 5675 5672 5670 5668 5665 5662 5659 5657 5655 5652 5650 5647 5644 5642
5661 5667 5666 5664 5668 5668 5664 5663 5659 5662 5665 5679 5681 5683 5684 5685 5686 5686 5688 5688 5687 5687 5686 5684 5683 5682 5680 5679 5678 5675 5672 5669 5667 5664 5662 5659 5656 5654 5651 5649 5646 5643 5641 5639
5645 5654 5657 5651 5664 5665 5664 5664 5662 5659 5668 5675 5675 5677 5679 5681 5682 5682 5685 5685 5683 5683 5683 5682 5681 5679 5677 5676 5674 5671 5668 5666 5663 5661 5658 5655 5653 5650 5647 5645 5642 5640 5638 5636
5635 5642 5636 5656 5671 5670 5665 5664 5664 5665 5669 5671 5673 5676 5678 5679 5679 5679 5680 5681 5681 5680 5679 5679 5677 5676 5674 5672 5669 5666 5664 5661 5659 5657 5654 5651 5649 5646 5644 5641 5639 5636 5634 5633
5625 5627 5635 5652 5663 5662 5658 5657 5662 5662 5665 5668 5670 5671 5672 5677 5676 5677 5678 5678 5678 5677 5676 5674 5672 5671 5669 5666 5663 5661 5659 5657 5655 5653 5650 5647 5644 5642 5640 5637 5635 5633 5632 5630
5619 5623 5626 5645 5660 5663 5657 5647 5657 5657 5658 5659 5660 5652 5659 5670 5671 5672 5673 5673 5672 5671 5670 5668 5667 5666 5662 5660 5657 5655 5655 5653 5652 5649 5646 5643 5641 5638 5636 5634 5631 5630 5628 5626
5613 5617 5627 5645 5653 5654 5638 5641 5652 5653 5653 5652 5649 5651 5658 5663 5664 5665 5666 5666 5666 5664 5662 5661 5660 5658 5655 5653 5652 5652 5651 5649 5646 5644 5641 5639 5636 5634 5631 5629 5626 5624 5622 5622
5607 5610 5621 5643 5643 5637 5637 5644 5647 5647 5647 5647 5648 5651 5653 5655 5656 5657 5657 5658 5658 5656 5655 5654 5653 5650 5648 5647 5648 5647 5644 5642 5640 5638 5636 5634 5630 5628 5625 5623 5620 5618 5616 5615
5610 5616 5627 5632 5635 5637 5638 5638 5640 5640 5642 5642 5642 5643 5645 5646 5647 5648 5649 5649 5649 5648 5647 5646 5645 5644 5642 5643 5642 5640 5637 5635 5634 5632 5630 5628 5624 5621 5618 5616 5614 5611 5610 5609
5602 5613 5619 5622 5626 5629 5631 5632 5634 5635 5635 5635 5635 5636 5637 5638 5638 5639 5640 5640 5640 5639 5638 5637 5637 5638 5637 5636 5635 5633 5630 5628 5626 5624 5622 5620 5618 5616 5612 5610 5608 5606 5604 5603
5594 5602 5608 5614 5617 5620 5622 5624 5625 5627 5628 5628 5627 5627 5628 5629 5630 5631 5631 5631 5631 5630 5629 5630 5629 5629 5629 5628 5626 5625 5623 5621 5619 5617 5615 5612 5610 5609 5607 5606 5604 5602 5600 5598
5588 5596 5595 5601 5608 5610 5611 5613 5615 5616 5618 5620 5620 5619 5620 5620 5621 5622 5621 5621 5621 5621 5621 5621 5621 5621 5621 5620 5619 5617 5615 5613 5611 5609 5607 5604 5602 5600 5599 5598 5597 5596 5594 5592
5589 5593 5592 5596 5599 5601 5602 5604 5607 5608 5609 5610 5611 5611 5611 5611 5612 5612 5611 5611 5611 5612 5613 5613 5612 5612 5612 5611 5611 5609 5608 5606 5604 5601 5599 5597 5594 5592 5589 5588 5587 5586 5585 5584
5583 5583 5583 5588 5589 5592 5594 5596 5598 5598 5600 5601 5602 5602 5602 5601 5601 5601 5602 5602 5603 5603 5604 5604 5603 5603 5603 5603 5602 5600 5599 5598 5596 5593 5591 5589 5586 5584 5582 5579 5576 5575 5575 5574
5576 5576 5577 5581 5582 5583 5585 5585 5585 5586 5588 5590 5591 5591 5592 5591 5591 5592 5594 5594 5593 5593 5594 5594 5594 5595 5595 5594 5593 5591 5590 5589 5587 5584 5582 5580 5578 5575 5572 5571 5568 5566 5564 5563
5569 5570 5570 5571 5573 5574 5574 5575 5574 5575 5578 5580 5580 5581 5582 5583 5583 5583 5584 5584 5583 5584 5585 5585 5586 5586 5586 5585 5584 5582 5581 5581 5579 5575 5573 5570 5568 5565 5563 5561 5559 5557 5555 5554
5559 5560 5562 5563 5564 5565 5566 5567 5567 5567 5568 5570 5571 5573 5574 5573 5573 5573 5574 5575 5575 5576 5576 5576 5577 5577 5576 5576 5574 5574 5572 5571 5571 5567 5564 5562 5560 5558 5556 5553 5552 5550 5548 5547
5555 5556 5556 5556 5557 5558 5559 5559 5559 5559 5560 5561 5563 5563 5564 5563 5563 5564 5565 5565 5565 5565 5566 5567 5568 5568 5567 5567 5566 5564 5562 5561 5560 5558 5556 5554 5552 5551 5548 5546 5545 5543 5541 5538
5547 5548 5548 5549 5550 5550 5550 5550 5550 5550 5551 5552 5552 5552 5553 5553 5553 5554 5554 5554 5554 5555 5557 5558 5559 5558 5558 5558 5557 5556 5554 5553 5552 5550 5548 5547 5544 5542 5540 5539 5537 5535 5533 5530
5539 5539 5539 5540 5541 5541 5540 5541 5541 5541 5542 5542 5541 5541 5541 5542 5543 5544 5544 5544 5546 5547 5549 5548 5548 5548 5548 5548 5548 5546 5545 5544 5543 5541 5539 5537 5536 5535 5533 5531 5529 5527 5525 5523
5531 5531 5530 5530 5531 5531 5531 5531 5532 5532 5533 5533 5532 5532 5532 5533 5533 5533 5534 5535 5538 5538 5539 5539 5538 5538 5538 5538 5539 5536 5536 5535 5534 5533 5531 5529 5528 5526 5525 5523 5521 5519 5517 5515
5522 5522 5521 5521 5522 5522 5523 5522 5522 5523 5524 5524 5524 5523 5523 5523 5524 5524 5525 5526 5529 5529 5529 5528 5528 5529 5529 5529 5527 5526 5526 5526 5525 5523 5522 5520 5519 5517 5516 5514 5512 5510 5508 5507
5512 5512 5512 5512 5513 5513 5514 5514 5514 5514 5514 5515 5515 5514 5514 5514 5515 5514 5516 5518 5518 5520 5519 5518 5519 5520 5519 5517 5516 5516 5516 5515 5515 5514 5513 5512 5511 5509 5507 5505 5503 5502 5499 5498
5504 5504 5504 5504 5504 5503 5504 5505 5505 5506 5506 5506 5506 5506 5506 5506 5507 5507 5508 5510 5510 5510 5509 5508 5509 5509 5508 5505 5505 5504 5505 5505 5505 5505 5504 5503 5501 5500 5499 5497 5495 5493 5492 5490
5496 5496 5496 5495 5495 5495 5496 5496 5496 5496 5496 5497 5497 5498 5498 5498 5498 5500 5499 5500 5501 5500 5498 5498 5499 5498 5496 5495 5494 5494 5495 5495 5495 5495 5494 5493 5492 5491 5490 5488 5487 5485 5484 5482
5487 5487 5487 5488 5487 5487 5487 5487 5486 5487 5487 5488 5489 5490 5490 5490 5490 5490 5490 5490 5490 5490 5488 5487 5487 5486 5485 5484 5484 5484 5485 5485 5485 5484 5484 5483 5482 5482 5481 5480 5478 5477 5475 5474
5479 5479 5478 5478 5479 5479 5478 5478 5478 5479 5479 5479 5480 5481 5481 5481 5481 5481 5481 5480 5479 5478 5477 5477 5476 5475 5475 5474 5474 5474 5475 5475 5475 5475 5474 5474 5473 5472 5472 5471 5470 5468 5467 5465